Terminal Aerodrome Forecast
Issued by NWS Houston/Galveston TX

Home | Current Version | Previous Version | Text Only | Print | Product List | Glossary On
Versions: 1 2 3 4 5 6 7 8 9 10 11 12 13 14 15 16 17 18 19 20 21 22 23 24 25 26 27 28 29 30 31 32 33 34 35 36 37 38 39 40 41 42 43 44 45 46 47 48 49 50
000
FTUS44 KHGX 011921 AAA
TAFHOU
TAF AMD
KHOU 011921Z 0119/0218 00000KT P6SM VCTS SCT030CB SCT150 BKN250
      TEMPO 0120/0121 VRB15G25KT 2SM TSRA OVC040CB
     FM012300 17007KT P6SM SCT040 BKN120
     FM020300 18005KT P6SM SCT250=

USA.gov is the U.S. government's official web portal to all federal, state and local government web resources and services.